Regional Weather Roundup
Issued by NWS

Home | Current Version | Previous Version | Graphics & Text | Print | Product List | Glossary On
Versions: 1 2 3 4 5 6 7 8 9 10 11 12 13 14 15 16 17 18 19 20 21 22 23 24 25 26 27 28 29 30 31 32 33 34 35 36 37 38 39 40 41 42 43 44 45 46 47 48 49 50
000
ASUS45 KBOU 251707
RWRCO

WEATHER ROUNDUP FOR COLORADO
NATIONAL WEATHER SERVICE DENVER/BOULDER CO
1100 AM MDT MON MAY 25 2015

NOTE: "FAIR" INDICATES FEW OR NO CLOUDS BELOW 12000 FEET WITH NO
SIGNIFICANT WEATHER AND/OR OBSTRUCTIONS TO VISIBILITY.

COZ001>005-013-030-031-251800-
...NORTHWEST COLORADO...

CITY           SKY/WX    TMP DP  RH WIND       PRES   REMARKS
CRAIG          CLOUDY    50  40  68 SW8       30.02S
HAYDEN         CLOUDY    48  37  66 NW5       30.02S
MEEKER         CLOUDY    51  40  65 CALM      30.02S
MOUNT WERNER   NOT AVBL
STEAMBOAT SPGS CLOUDY    46  39  78 SE5       30.02F
WALDEN         CLOUDY    43  30  61 SW8       30.02S
$$

COZ006>008-011-251800-
...WEST CENTRAL VALLEYS...

CITY           SKY/WX    TMP DP  RH WIND       PRES   REMARKS
GRAND JUNCTION CLOUDY    56  45  66 CALM      29.99F
MONTROSE       MOSUNNY   55  43  63 CALM      30.03F
EAGLE          MOSUNNY   54  36  50 W6        30.03F
RIFLE          CLOUDY    51  42  71 E3        30.03S
DELTA          MOSUNNY   58  45  61 MISG      30.02S
NUCLA          MOSUNNY   55  43  62 CALM      30.04F
$$

COZ017>023-064>068-251800-
...SOUTHWEST COLORADO...

CITY           SKY/WX    TMP DP  RH WIND       PRES   REMARKS
DURANGO        CLOUDY    52  44  74 S6        30.04F
CORTEZ         CLOUDY    51  47  86 S12       30.04R
PAGOSA SPRINGS LGT RAIN  48  37  65 CALM      30.08R
TELLURIDE      LGT RAIN  39  37  93 CALM      30.13R
WOLF CREEK PAS NOT AVBL
$$

COZ009-010-012-014-032>034-037-058>063-251800-
...CENTRAL COLORADO...

CITY           SKY/WX    TMP DP  RH WIND       PRES   REMARKS
ASPEN          LGT RAIN  42  35  76 N3        30.06S
BUENA VISTA    MOSUNNY   53  29  38 CALM      30.01F
COPPER MTN     CLOUDY    34  30  86 W18       30.15R WCI  23
BERTHOUD PASS  CLOUDY    23  16  74 N12G21    30.15R WCI  12
COTTONWOOD PAS CLOUDY    46  30  53 CALM      30.08S
GUNNISON       PTSUNNY   46  34  61 CALM      30.08F
KREMMLING      PTSUNNY   50  36  57 CALM      30.04S
LEADVILLE      CLOUDY    41  30  65 W12       30.07S
MONARCH PASS   CLOUDY    30  28  93 W15       30.26R WCI  19
SALIDA         CLOUDY    54  35  48 SW6       30.08R
SUNLIGHT       CLOUDY    34  34 100 CALM        N/A  FOG
WILKERSON PASS MOSUNNY   36  27  69 W5        30.14S
$$

COZ069>075-251800-
...SAN LUIS VALLEY/SANGRE DE CRISTO MOUNTAINS...

CITY           SKY/WX    TMP DP  RH WIND       PRES   REMARKS
ALAMOSA        SUNNY     54  32  43 SE5       30.03S
LA VETA PASS   MOSUNNY  N/A N/A N/A MISG      30.09S
SAGUACHE       MOSUNNY   52  37  58 N12       30.05S
$$

COZ035-036-038>040-251800-
...NORTHERN COLORADO FRONT RANGE...

CITY           SKY/WX    TMP DP  RH WIND       PRES   REMARKS
DENVER INTL AP PTSUNNY   59  42  53 E6        29.92S
DMNS CITY PARK   N/A     62  39  43 E6        29.90F
AURORA         NOT AVBL
FRONT RANGE AP NOT AVBL
ERIE MUNI ARPT MOSUNNY   59  42  52 E3        29.92S
BOULDER MUN AP MOSUNNY   55  43  62 NE7       29.91S
CENTENNIAL     PTSUNNY   58  37  45 VRB5      29.92F
BROOMFIELD     PTSUNNY   57  41  54 E3        29.92F
FORT COLLINS   CLOUDY    55  43  62 S7        29.92F
LONGMONT       CLOUDY    62  45  54 CALM      29.93S
$$

COZ041-046-047-076>085-087-088-251800-
...PIKES PEAK/PALMER DIVIDE AND SOUTHERN FOOTHILLS...

CITY           SKY/WX    TMP DP  RH WIND       PRES   REMARKS
COLO. SPRINGS  PTSUNNY   57  40  52 S10       29.95S
A. F. ACADEMY  NOT AVBL
ELLICOTT       NOT AVBL
FALCON         PTSUNNY   56  32  40 N3        29.98R
FORT CARSON    NOT AVBL
LIMON          MOSUNNY   59  44  57 N13       29.92S
MONUMENT HILL  NOT AVBL
TRINIDAD       MOSUNNY   63  39  41 VRB3      29.91S
$$

COZ042>045-048>051-090-091-251800-
...NORTHEAST COLORADO...

CITY           SKY/WX    TMP DP  RH WIND       PRES   REMARKS
GREELEY ARPT   CLOUDY    55  45  67 W3        29.92S
AKRON          PTSUNNY   58  46  64 NW21      29.89S
BURLINGTON     MOSUNNY   62  48  60 NW15      29.86F
WRAY           PTSUNNY   62  48  59 NW13G20   29.85F
STERLING       CLOUDY    55  45  67 N16       29.88R
HOLYOKE        NOT AVBL
FORT MORGAN    DRIZZLE   55  47  74 W9        29.91S
$$

COZ086-089-092>099-251800-
...SOUTHEAST COLORADO...

CITY           SKY/WX    TMP DP  RH WIND       PRES   REMARKS
PUEBLO         PTSUNNY   61  45  55 S5        29.90F
LA JUNTA       PTSUNNY   63  48  58 VRB5      29.89R
LAMAR          MOSUNNY   66  50  56 E3        29.87R
SPRINGFIELD      N/A     65  44  46 CALM      29.89S
$$


USA.gov is the U.S. government's official web portal to all federal, state and local government web resources and services.